Point Salines, Grenada

9:49 PM AST on May 22, 2017 (GMT -0400)
Point Salines International

Weather History for TGPY - April, 2014

Change the Weather History Date:

Wednesday, April 30, 2014

  Actual Average Record
Temperature  
Mean Temperature 82 °F -  
Max Temperature 87 °F 85 °F 89 °F (1998)
Min Temperature 77 °F 77 °F 76 °F (2013)
Cooling Degree Days 17    
Growing Degree Days 32 (Base 50)    
Moisture  
Dew Point 74 °F    
Average Humidity 77    
Maximum Humidity 83    
Minimum Humidity 62    
Precipitation  
Precipitation 0.00 in - - ()
Sea Level Pressure  
Sea Level Pressure 29.92 in    
Wind  
Wind Speed 14 mph ()    
Max Wind Speed 20 mph    
Max Gust Speed -    
Visibility 6.8 miles    
Events      
Averages and records for this station are not official NWS values.
T = Trace of Precipitation, MM = Missing Value Source: Averaged Metar Reports

Daily Weather History Graph

Daily Weather History Graph

Search for Another Location

Airport or City:

Trip Planner

Search our weather history database for the weather conditions in past years. The results will help you decide how hot, cold, wet, or windy it might be!

Date:

Astronomy

Apr. 30, 2014 Rise Set
Actual Time 5:47 AM AST 6:20 PM AST
Civil Twilight 5:25 AM AST 6:42 PM AST
Nautical Twilight 5:00 AM AST 7:08 PM AST
Astronomical Twilight 4:34 AM AST 7:34 PM AST
Moon 6:51 AM AST (4/30) 7:47 PM AST (4/30)
Length of Visible Light 13h 16m
Length of Day
12h 32m
New Moon, 2% of the Moon is Illuminated
Apr 30
New Moon
May 6
First Quarter
May 14
Full
May 21
Last Quarter
May 28
New

Hourly Weather History & Observations

Time (AST) Temp. Heat Index Dew Point Humidity Pressure Visibility Wind Dir Wind Speed Gust Speed Precip Events Conditions
12:00 AM 80.6 °F 85.4 °F 73.4 °F 79% 29.95 in 6.2 mi East 17.3 mph - N/A   Scattered Clouds
1:00 AM 78.8 °F - 73.4 °F 83% 29.92 in 6.2 mi East 16.1 mph - N/A   Partly Cloudy
2:00 AM 79 °F - 74 °F 79% 29.92 in 9 mi East 11.5 mph - -   Widespread Dust
2:00 AM 78.8 °F - 73.4 °F 83% 29.92 in 6.2 mi East 11.5 mph - N/A   Partly Cloudy
3:00 AM 78.8 °F - 73.4 °F 83% 29.92 in 6.2 mi East 11.5 mph - N/A   Partly Cloudy
4:00 AM 78.8 °F - 73.4 °F 83% 29.92 in 6.2 mi East 11.5 mph - N/A   Partly Cloudy
5:00 AM 79 °F - 72 °F 75% 29.92 in 9 mi East 17.3 mph - -   Widespread Dust
5:00 AM 78.8 °F - 71.6 °F 78% 29.92 in 6.2 mi East 17.3 mph - N/A   Partly Cloudy
6:00 AM 78.8 °F - 73.4 °F 83% 29.92 in 6.2 mi East 17.3 mph - N/A   Partly Cloudy
7:00 AM 80.6 °F 85.4 °F 73.4 °F 79% 29.92 in 6.2 mi East 11.5 mph - N/A   Partly Cloudy
8:00 AM 82 °F - 73 °F 67% 29.94 in 7 mi East 13.8 mph - -   Widespread Dust
8:00 AM 82.4 °F 88.2 °F 73.4 °F 74% 29.95 in 6.2 mi East 13.8 mph - N/A   Scattered Clouds
9:00 AM 82.4 °F 88.2 °F 73.4 °F 74% 29.95 in 6.2 mi ESE 17.3 mph - N/A   Mostly Cloudy
10:00 AM 84.2 °F 90.9 °F 73.4 °F 70% 29.95 in 6.2 mi East 16.1 mph - N/A   Scattered Clouds
11:00 AM 84 °F - 73 °F 62% 29.96 in 9 mi ESE 19.6 mph - -   Widespread Dust
11:00 AM 84.2 °F 90.9 °F 73.4 °F 70% 29.95 in 6.2 mi ESE 19.6 mph - N/A   Scattered Clouds
12:00 PM 84.2 °F 90.9 °F 73.4 °F 70% 29.95 in 6.2 mi ESE 18.4 mph - N/A   Partly Cloudy
1:00 PM 84.2 °F 92.3 °F 75.2 °F 74% 29.92 in 6.2 mi ESE 16.1 mph - N/A   Partly Cloudy
2:00 PM 85 °F - 74 °F 64% 29.91 in 9 mi ESE 16.1 mph - -   Widespread Dust
2:00 PM 86.0 °F 95.1 °F 75.2 °F 70% 29.92 in 6.2 mi ESE 16.1 mph - N/A   Partly Cloudy
3:00 PM 84.2 °F 92.3 °F 75.2 °F 74% 29.89 in 6.2 mi ESE 16.1 mph - N/A   Partly Cloudy
4:00 PM 82.4 °F 89.5 °F 75.2 °F 79% 29.89 in 6.2 mi ESE 15.0 mph - N/A   Partly Cloudy
5:00 PM 82.4 °F 89.5 °F 75.2 °F 79% 29.89 in 6.2 mi ESE 16.1 mph - N/A   Partly Cloudy
6:00 PM 82.4 °F 89.5 °F 75.2 °F 79% 29.89 in 6.2 mi ESE 19.6 mph - N/A   Partly Cloudy
7:00 PM 80.6 °F 85.4 °F 73.4 °F 79% 29.89 in 6.2 mi ESE 18.4 mph - N/A   Partly Cloudy
8:00 PM 80 °F - 73 °F 75% 29.91 in 9 mi East 11.5 mph - -   Widespread Dust
8:00 PM 80.6 °F 85.4 °F 73.4 °F 79% 29.89 in 6.2 mi East 11.5 mph - N/A   Partly Cloudy
9:00 PM 78.8 °F - 73.4 °F 83% 29.92 in 6.2 mi East 11.5 mph - N/A   Scattered Clouds
10:00 PM 78.8 °F - 73.4 °F 83% 29.92 in 6.2 mi ESE 12.7 mph - N/A   Partly Cloudy
11:00 PM 79 °F - 74 °F 79% 29.94 in 9 mi ESE 11.5 mph - -   Widespread Dust
11:00 PM 78.8 °F - 73.4 °F 83% 29.95 in 6.2 mi ESE 11.5 mph - N/A   Partly Cloudy